Location: Brantley
(31.5822°N, 86.2569°W)
Time: 02:36:12
(UTC+00:00)

Vanguard 3 - Pass Details

Date: 21 February 2026
Orbit: 507 x 3205 km, 33.4° (Epoch: 13 March)

Event Time Altitude Azimuth Distance (km) Brightness Sun altitude
Rises 19:54:02 0° 239° (WSW) 6,849 12.7 39.8°
Reaches altitude 10° 19:59:06 10° 237° (WSW) 5,559 12.5 39.1°
Maximum altitude 20:14:26 67° 159° (SSE) 2,014 9.9 37.0°
Drops below altitude 10° 20:23:06 10° 79° (E) 3,307 9.9 35.7°
Sets 20:25:22 0° 76° (ENE) 4,006 10.3 35.3°
